Kelso, WA

1:46 PM PST on December 03, 2016 (GMT -0800)
Kelso-Longview

Weather History for KKLS - April, 2013

Change the Weather History Date:

Saturday, April 6, 2013

  Actual Average Record
Temperature  
Mean Temperature 52 °F -  
Max Temperature 59 °F 54 °F 78 °F (2007)
Min Temperature 44 °F 38 °F 30 °F (1997)
Degree Days  
Heating Degree Days 14    
Growing Degree Days 2 (Base 50)    
Moisture  
Dew Point 42 °F    
Average Humidity 74    
Maximum Humidity 87    
Minimum Humidity 48    
Precipitation  
Precipitation 0.41 in - - ()
Sea Level Pressure  
Sea Level Pressure 29.90 in    
Wind  
Wind Speed 6 mph (SSE)    
Max Wind Speed 7 mph    
Max Gust Speed -    
Visibility 10 miles    
Events      
Averages and records for this station are not official NWS values.
T = Trace of Precipitation, MM = Missing Value Source: NWS Daily Summary

Daily Weather History Graph

Daily Weather History Graph

Search for Another Location

Airport or City:

Trip Planner

Search our weather history database for the weather conditions in past years. The results will help you decide how hot, cold, wet, or windy it might be!

Date:

Astronomy

Apr. 06, 2013 Rise Set
Actual Time 6:41 AM PDT 7:47 PM PDT
Civil Twilight 6:10 AM PDT 8:18 PM PDT
Nautical Twilight 5:33 AM PDT 8:54 PM PDT
Astronomical Twilight 4:55 AM PDT 9:34 PM PDT
Moon 4:39 AM PDT (4/6) 4:11 PM PDT (4/6)
Length of Visible Light 14h 07m
Length of Day
13h 06m
Waning Crescent, 14% of the Moon is Illuminated
Apr 6
Waning Crescent
Apr 10
New
Apr 18
First Quarter
Apr 25
Full
May 2
Last Quarter

Hourly Weather History & Observations

Time (PDT) Temp. Dew Point Humidity Pressure Visibility Wind Dir Wind Speed Gust Speed Precip Events Conditions
12:15 AM 51.8 °F 46.4 °F 82% 29.79 in 9.0 mi North - - 0.05 in   Overcast
12:35 AM 51.8 °F 46.4 °F 82% 29.79 in 10.0 mi North - - 0.05 in   Overcast
12:55 AM 51.8 °F 46.4 °F 82% 29.79 in 10.0 mi North - - 0.05 in   Mostly Cloudy
1:15 AM 51.8 °F 46.4 °F 82% 29.79 in 10.0 mi North - - 0.01 in   Overcast
1:35 AM 51.8 °F 46.4 °F 82% 29.81 in 10.0 mi North - - 0.02 in   Overcast
1:55 AM 51.8 °F 46.4 °F 82% 29.83 in 8.0 mi North - - 0.09 in   Overcast
2:15 AM 51.8 °F 46.4 °F 82% 29.83 in 10.0 mi North - - 0.01 in   Mostly Cloudy
2:35 AM 51.8 °F 46.4 °F 82% 29.83 in 9.0 mi North - - 0.06 in   Mostly Cloudy
2:55 AM 51.8 °F 46.4 °F 82% 29.84 in 10.0 mi North - - 0.07 in   Mostly Cloudy
3:15 AM 51.8 °F 46.4 °F 82% 29.85 in 10.0 mi North - - N/A   Mostly Cloudy
3:35 AM 50.0 °F 44.6 °F 82% 29.86 in 10.0 mi North - - N/A   Scattered Clouds
3:55 AM 48.2 °F 44.6 °F 87% 29.86 in 10.0 mi North - - N/A   Scattered Clouds
4:15 AM 48.2 °F 44.6 °F 87% 29.86 in 10.0 mi North - - N/A   Mostly Cloudy
4:35 AM 48.2 °F 44.6 °F 87% 29.87 in 10.0 mi North - - N/A   Overcast
4:55 AM 48.2 °F 44.6 °F 87% 29.88 in 10.0 mi North - - N/A   Overcast
5:15 AM 48.2 °F 44.6 °F 87% 29.88 in 10.0 mi North - - N/A   Overcast
5:35 AM 48.2 °F 44.6 °F 87% 29.89 in 10.0 mi North - - N/A   Overcast
5:55 AM 48.2 °F 44.6 °F 87% 29.89 in 10.0 mi North - - N/A   Overcast
6:15 AM 48.2 °F 44.6 °F 87% 29.90 in 10.0 mi North - - N/A   Overcast
6:35 AM 48.2 °F 44.6 °F 87% 29.90 in 10.0 mi North - - N/A   Overcast
6:55 AM 48.2 °F 44.6 °F 87% 29.91 in 10.0 mi North - - N/A   Overcast
7:15 AM 48.2 °F 42.8 °F 82% 29.91 in 10.0 mi SE 5.8 mph - N/A   Overcast
7:35 AM 48.2 °F 42.8 °F 82% 29.91 in 10.0 mi North - - N/A   Overcast
7:55 AM 48.2 °F 44.6 °F 87% 29.92 in 10.0 mi North - - N/A   Overcast
8:15 AM 48.2 °F 44.6 °F 87% 29.92 in 10.0 mi North - - N/A   Overcast
8:35 AM 48.2 °F 44.6 °F 87% 29.93 in 10.0 mi North - - N/A   Mostly Cloudy
8:55 AM 50.0 °F 42.8 °F 76% 29.93 in 10.0 mi SSE 6.9 mph - N/A   Mostly Cloudy
9:15 AM 51.8 °F 42.8 °F 71% 29.94 in 10.0 mi North - - N/A   Partly Cloudy
9:35 AM 51.8 °F 42.8 °F 71% 29.95 in 10.0 mi North - - N/A   Mostly Cloudy
9:55 AM 53.6 °F 42.8 °F 67% 29.95 in 10.0 mi North - - N/A   Mostly Cloudy
10:15 AM 51.8 °F 42.8 °F 71% 29.95 in 10.0 mi North - - N/A   Overcast
10:35 AM 53.6 °F 42.8 °F 67% 29.95 in 10.0 mi North - - N/A   Mostly Cloudy
10:55 AM 53.6 °F 42.8 °F 67% 29.96 in 10.0 mi North - - N/A   Overcast
11:15 AM 53.6 °F 42.8 °F 67% 29.97 in 10.0 mi North - - N/A   Mostly Cloudy
11:35 AM 55.4 °F 42.8 °F 63% 29.97 in 10.0 mi North - - N/A   Overcast
11:55 AM 55.4 °F 42.8 °F 63% 29.97 in 10.0 mi North - - N/A   Overcast
12:15 PM 55.4 °F 42.8 °F 63% 29.97 in 10.0 mi North - - N/A   Mostly Cloudy
12:35 PM 55.4 °F 41.0 °F 58% 29.98 in 10.0 mi North - - N/A   Mostly Cloudy
12:55 PM 57.2 °F 42.8 °F 59% 29.98 in 10.0 mi North - - N/A   Scattered Clouds
1:15 PM 57.2 °F 42.8 °F 59% 29.98 in 10.0 mi North - - N/A   Clear
1:35 PM 57.2 °F 39.2 °F 51% 29.97 in 10.0 mi North - - N/A   Partly Cloudy
1:55 PM 57.2 °F 39.2 °F 51% 29.97 in 10.0 mi North - - N/A   Mostly Cloudy
2:15 PM 59.0 °F 39.2 °F 48% 29.97 in 10.0 mi North - - N/A   Mostly Cloudy
2:35 PM 57.2 °F 37.4 °F 48% 29.97 in 10.0 mi North - - N/A   Mostly Cloudy
2:55 PM 57.2 °F 37.4 °F 48% 29.97 in 10.0 mi North - - N/A   Mostly Cloudy
3:15 PM 57.2 °F 37.4 °F 48% 29.97 in 10.0 mi North - - N/A   Scattered Clouds
3:35 PM 55.4 °F 37.4 °F 51% 29.97 in 10.0 mi North - - N/A   Mostly Cloudy
3:55 PM 51.8 °F 41.0 °F 67% 29.97 in 8.0 mi North - - 0.01 in   Mostly Cloudy
4:15 PM 51.8 °F 41.0 °F 67% 29.97 in 10.0 mi North - - N/A   Overcast
4:35 PM 51.8 °F 41.0 °F 67% 29.97 in 10.0 mi North - - N/A   Overcast
4:55 PM 51.8 °F 39.2 °F 62% 29.96 in 10.0 mi North - - N/A   Overcast
5:15 PM 51.8 °F 39.2 °F 62% 29.96 in 10.0 mi North - - N/A   Overcast
5:35 PM 51.8 °F 39.2 °F 62% 29.96 in 10.0 mi North - - N/A   Overcast
5:55 PM 51.8 °F 39.2 °F 62% 29.95 in 10.0 mi North - - N/A   Overcast
6:15 PM 51.8 °F 39.2 °F 62% 29.94 in 10.0 mi North - - N/A   Overcast
6:35 PM 50.0 °F 39.2 °F 66% 29.94 in 10.0 mi North - - 0.01 in   Overcast
6:55 PM 48.2 °F 41.0 °F 76% 29.93 in 10.0 mi North - - 0.02 in   Overcast
7:15 PM 48.2 °F 42.8 °F 82% 29.93 in 10.0 mi North - - N/A   Overcast
7:35 PM 48.2 °F 42.8 °F 82% 29.92 in 10.0 mi North - - 0.01 in   Overcast
7:55 PM 48.2 °F 42.8 °F 82% 29.91 in 10.0 mi North - - 0.02 in   Mostly Cloudy
8:15 PM 48.2 °F 42.8 °F 82% 29.90 in 10.0 mi North - - N/A   Overcast
8:35 PM 46.4 °F 42.8 °F 87% 29.89 in 10.0 mi North - - N/A   Overcast
8:55 PM 46.4 °F 42.8 °F 87% 29.89 in 10.0 mi North - - 0.01 in   Mostly Cloudy
9:15 PM 46.4 °F 42.8 °F 87% 29.87 in 10.0 mi North - - N/A   Overcast
9:35 PM 46.4 °F 42.8 °F 87% 29.86 in 10.0 mi North - - N/A   Overcast
9:55 PM 46.4 °F 41.0 °F 81% 29.84 in 10.0 mi North - - 0.01 in   Overcast
10:15 PM 46.4 °F 41.0 °F 81% 29.83 in 10.0 mi North - - 0.02 in   Overcast
10:35 PM 46.4 °F 39.2 °F 76% 29.82 in 10.0 mi North - - 0.04 in   Overcast
10:55 PM 46.4 °F 39.2 °F 76% 29.79 in 9.0 mi North - - 0.08 in   Overcast
11:15 PM 44.6 °F 39.2 °F 81% 29.77 in 8.0 mi North - - 0.03 in   Overcast
11:35 PM 44.6 °F 39.2 °F 81% 29.73 in 10.0 mi North - - 0.04 in   Overcast
11:55 PM 44.6 °F 39.2 °F 81% 29.70 in 10.0 mi North - - 0.05 in   Overcast